Regional Weather Roundup
Issued by NWS

Home | Current Version | Previous Version | Graphics & Text | Print | Product List | Glossary On
Versions: 1 2 3 4 5 6 7 8 9 10 11 12 13 14 15 16 17 18 19 20 21 22 23 24 25 26 27 28 29 30 31 32 33 34 35 36 37 38 39 40 41 42 43 44 45 46 47 48 49 50
000
ASUS43 KIND 251159
RWRIN

WEATHER ROUNDUP FOR INDIANA
NATIONAL WEATHER SERVICE INDIANAPOLIS IN
800 AM EDT SAT OCT 25 2014

NOTE: "FAIR" INDICATES FEW OR NO CLOUDS BELOW 12,000 FEET WITH NO
SIGNIFICANT WEATHER AND/OR OBSTRUCTIONS TO VISIBILITY.

* - STATION DOES NOT REPORT WEATHER SUCH AS PRECIPITATION OR FOG.

+ - STATION NOT QUALITY CONTROLLED BY THE NATIONAL WEATHER SERVICE.
    USE DATA WITH CAUTION...ESPECIALLY DEWPOINT AND RELATIVE
    HUMIDITY OBSERVATIONS.

INZ001>003-010>013-019-020-251300-
NORTHWEST INDIANA

CITY           SKY/WX    TMP DP  RH WIND       PRES   REMARKS
GARY /AIRPORT/ CLOUDY    57  55  94 W14       29.92S FOG
VALPARAISO     PTCLDY    52  50  93 SW7       29.92S FOG

$$

LMZ046-743>745-251300-
SOUTHERN LAKE MICHIGAN

STATION/POSITION TIME  TEMP WIND        PRES
                       AIR  DIR/SP/G
                 (UTC) (F)  (DEG/KT/KT) (MB)
MICHIGAN CITY    1100   56  210/ 11/ 12   N/A

$$

INZ004-005-014>016-021>024-251300-
NORTH CENTRAL INDIANA

CITY           SKY/WX    TMP DP  RH WIND       PRES   REMARKS
ELKHART        PTCLDY    52  50  93 W3        29.90  FOG
GOSHEN         CLOUDY    54  51  90 SW8       29.90F
6HR MIN TEMP:  51; 6HR MAX TEMP:  55;

SOUTH BEND     PTCLDY    51  49  92 SW5       29.91F FOG
6HR MIN TEMP:  51; 6HR MAX TEMP:  56;


$$

INZ006>009-017-018-025>027-251300-
NORTHEAST INDIANA

CITY           SKY/WX    TMP DP  RH WIND       PRES   REMARKS
ANGOLA *+      CLOUDY    55  48  76 W5        29.90S
FORT WAYNE     CLOUDY    54  50  86 SW8       29.93F
6HR MIN TEMP:  48; 6HR MAX TEMP:  54; 6HR PCP: TRACE;


$$

INZ028-029-035-036-043>045-051>053-251300-
WEST CENTRAL INDIANA

CITY           SKY/WX    TMP DP  RH WIND       PRES   REMARKS
GREENCASTLE +  MOCLDY    54  52  94 CALM      29.98R
LAFAYETTE      CLEAR     50  50 100 SW3       29.95S
6HR MIN TEMP:  50; 6HR MAX TEMP:  56; 6HR PCP: TRACE;

TERRE HAUTE    PTCLDY    52  50  93 S3        29.98R
6HR MIN TEMP:  48; 6HR MAX TEMP:  59;


$$

INZ030>032-037>040-046>048-054>057-064-065-251300-
CENTRAL INDIANA

CITY           SKY/WX    TMP DP  RH WIND       PRES   REMARKS
INDIANAPOLIS   MOCLDY    53  50  89 SW8       29.97R
6HR MIN TEMP:  50; 6HR MAX TEMP:  54;

-EAGLE CREEK   CLOUDY    55  51  86 SW6       29.97R
6HR MIN TEMP:  50; 6HR MAX TEMP:  55;

KOKOMO *+      CLOUDY    55  48  76 SW9       29.95S
MT COMFORT *+  MOCLDY    52  52 100 SW6       29.98R
SHELBYVILLE    MOCLDY    53  50  89 S7        29.97R
6HR MIN TEMP:  50; 6HR MAX TEMP:  55;


$$

INZ033-034-041-042-049-050-058-059-251300-
EAST CENTRAL INDIANA

CITY           SKY/WX    TMP DP  RH WIND       PRES   REMARKS
MUNCIE         CLOUDY    57  51  80 SW9       29.95R
6HR MIN TEMP:  53; 6HR MAX TEMP:  57;


$$

INZ060-061-067>069-081>083-085>088-251300-
SOUTHWEST INDIANA

CITY           SKY/WX    TMP DP  RH WIND       PRES   REMARKS
EVANSVILLE     MOCLDY    58  53  84 SW7       30.01S
6HR MIN TEMP:  52; 6HR MAX TEMP:  59;

HUNTINGBURG *+ PTCLDY    55  52  88 SW6       30.01F
6HR MIN TEMP:  48; 6HR MAX TEMP:  55;


$$

INZ062-063-066-070>080-084-089>092-251300-
SOUTH CENTRAL AND SOUTHEAST INDIANA

CITY           SKY/WX    TMP DP  RH WIND       PRES   REMARKS
BLOOMINGTON    MOCLDY    57  53  86 SW6       29.98S
6HR MIN TEMP:  49; 6HR MAX TEMP:  57;


$$




USA.gov is the U.S. government's official web portal to all federal, state and local government web resources and services.